Probability
26 26 25 24 21 21 21 20 19 18 17 14 12 9 8 6 6 6 7 9 11 11 10 10 11 14 16 17 15 10 7 4 1 2 5 6 5 5 5 7 8 7 5
25 24 24 23 22 22 23 22 21 20 17 13 11 10 8 7 8 8 8 9 10 9 8 8 8 10 13 15 14 11 8 4 1 1 3 6 6 5 4 5 5 4 4
25 24 24 24 24 24 24 22 21 19 16 12 10 9 9 8 9 10 11 11 10 7 6 6 7 8 11 12 12 11 9 6 3 1 3 7 8 6 5 4 4 4 3
27 27 26 24 23 23 23 20 18 17 14 11 10 9 8 8 8 9 11 10 9 7 6 6 6 7 7 8 7 8 9 8 6 4 5 8 8 6 5 5 5 6 5
31 31 28 24 21 20 20 19 18 16 13 9 8 7 6 6 5 5 6 7 7 6 5 5 5 4 3 2 3 4 6 7 7 7 8 9 7 5 4 4 5 6 6
32 30 27 24 20 18 18 18 17 17 14 10 8 7 6 4 2 2 2 4 6 7 6 5 5 4 2 1 1 1 3 3 4 5 7 8 6 5 5 4 4 4 5
29 28 26 24 21 19 19 19 19 18 15 13 12 11 9 5 1 0 1 3 6 7 7 7 6 5 4 3 2 2 2 2 2 3 5 6 6 7 6 5 5 5 5
28 27 26 24 22 22 22 22 21 19 16 14 14 14 12 7 1 0 1 3 5 6 6 6 6 6 5 4 4 4 5 4 3 3 3 4 5 6 6 6 5 5 5
26 26 25 24 23 23 23 23 22 19 17 15 13 14 13 8 2 0 1 4 6 6 5 6 6 5 4 3 4 6 8 7 5 3 3 3 2 3 4 4 4 4 4
22 23 23 23 22 22 23 23 21 18 16 15 14 14 14 10 3 0 2 5 6 5 5 5 5 4 3 2 4 7 9 8 7 5 4 3 3 3 3 4 4 4 4
19 21 22 22 21 20 21 22 19 16 16 16 15 15 15 11 4 1 2 4 5 5 6 7 5 3 1 1 4 6 6 6 8 8 6 4 4 5 5 5 5 6 6
20 21 22 22 19 18 18 19 17 15 15 15 15 15 14 10 4 1 1 2 2 3 6 7 5 2 0 0 2 3 3 4 7 7 5 4 5 6 6 6 6 7 7
22 21 21 20 18 16 16 16 16 15 15 14 13 13 12 8 4 1 1 0 0 2 4 4 2 1 0 0 0 1 2 4 7 6 5 4 5 7 7 6 5 6 7
21 20 19 19 17 16 16 14 15 15 15 13 12 10 8 6 4 3 2 1 1 2 3 2 1 1 0 0 1 2 3 6 7 6 5 5 7 8 8 6 5 6 6
18 18 18 19 18 16 15 12 11 12 11 9 9 7 5 3 2 2 3 2 2 3 2 1 2 2 1 0 2 3 4 5 5 4 4 4 5 8 9 7 6 6 6
16 17 18 19 17 16 13 10 8 7 5 3 3 3 2 1 0 1 2 2 1 1 1 2 2 2 1 0 1 2 3 3 3 3 4 4 5 7 8 7 6 6 6
16 17 18 18 17 15 12 10 8 6 3 1 1 0 0 0 0 0 1 1 0 0 1 2 2 1 0 1 1 1 1 2 3 3 3 5 6 7 6 5 5 6 6
14 15 15 15 15 13 11 10 9 8 6 4 3 1 0 0 0 0 0 1 1 0 1 2 2 1 0 1 2 1 1 1 2 2 3 5 6 5 4 3 3 3 4
11 11 10 11 11 9 8 9 9 9 9 8 6 3 1 0 0 0 1 2 2 1 0 1 1 0 0 0 1 1 0 0 1 1 1 3 3 3 2 1 1 1 2
9 8 8 9 9 7 7 8 9 9 9 8 7 5 3 1 1 0 1 2 2 1 0 0 0 0 0 0 0 0 0 0 0 0 0 1 2 3 2 1 0 1 2
8 8 8 9 8 7 7 7 7 7 7 7 6 5 3 3 2 1 0 1 1 0 0 0 0 0 0 0 0 0 0 0 0 0 0 0 2 3 2 1 0 0 1
8 8 8 7 7 7 6 6 6 6 6 6 6 4 3 3 3 1 0 0 0 0 0 0 0 0 0 0 0 0 0 0 0 0 1 1 1 2 2 1 0 0 0
8 8 7 7 6 6 6 6 6 6 6 6 5 4 3 3 3 2 0 0 0 0 0 0 0 0 0 0 0 0 0 0 1 1 2 2 1 1 2 2 1 0 0
6 6 6 6 6 6 6 6 6 6 6 6 4 3 3 3 2 1 0 0 0 0 0 0 0 0 0 0 0 0 0 0 1 2 3 3 2 1 2 2 1 0 0
5 6 7 7 7 6 6 6 6 6 6 5 4 3 3 3 3 1 1 0 0 0 0 0 0 0 0 0 0 0 0 0 1 1 2 3 3 3 3 2 1 0 0
6 6 8 8 7 6 6 6 6 6 5 4 4 3 3 3 3 2 2 1 0 0 0 0 0 0 0 0 0 0 0 0 0 0 1 3 4 5 4 2 0 0 0
Wind_Speed
5 5 4 4 4 4 4 4 3 3 3 3 3 3 2 3 2 2 2 2 2 2 2 1 2 2 2 2 2 2 2 2 2 1 1 2 1 1 1 1 2 2 3
5 5 5 4 4 4 4 3 3 3 3 3 3 3 3 3 2 3 3 2 2 2 2 2 2 1 2 2 2 2 1 2 3 2 1 1 1 1 1 2 1 1 1
5 5 4 4 4 4 3 3 3 3 3 3 3 3 2 2 3 3 3 3 3 2 2 2 2 2 2 1 2 2 2 2 2 3 2 1 1 1 2 2 1 0 1
5 5 5 4 4 4 4 4 3 3 3 3 3 3 3 3 3 3 3 3 2 2 2 3 3 3 3 3 3 3 3 3 3 3 3 2 2 2 2 2 2 2 1
4 4 4 4 3 3 3 3 3 4 3 3 3 4 3 3 2 1 2 2 2 2 2 3 2 1 1 2 3 2 3 3 3 3 3 2 1 2 2 2 1 1 1
3 3 3 4 4 4 4 4 3 4 3 3 4 4 4 2 3 2 2 2 3 3 3 3 3 5 4 4 2 3 4 4 4 4 3 2 2 2 2 3 2 2 1
3 3 3 4 4 4 4 4 4 4 4 4 4 4 3 2 2 1 3 3 3 3 3 4 4 2 5 4 5 6 5 5 5 6 5 4 3 2 3 4 3 3 2
4 4 4 4 4 4 4 4 4 3 4 3 4 4 3 3 4 3 4 5 4 4 4 4 4 3 3 4 5 4 4 3 4 6 4 5 3 2 4 4 3 3 3
4 4 4 4 5 4 4 4 3 3 3 3 4 4 4 3 4 4 5 4 3 4 4 4 4 4 1 3 5 5 4 3 3 3 3 3 2 3 3 4 3 3 3
3 3 3 4 4 4 4 4 3 3 3 4 3 3 3 2 3 4 5 4 3 3 3 3 2 3 1 3 5 4 5 4 3 3 4 5 6 6 6 6 4 4 3
3 3 3 3 4 4 4 4 3 4 3 3 3 3 3 2 4 3 4 4 3 4 3 3 1 3 2 3 5 4 3 4 5 4 4 4 4 4 5 5 4 4 4
3 3 3 3 3 3 4 3 3 3 4 4 3 3 3 3 2 3 4 4 4 4 3 2 2 4 1 3 4 2 3 6 5 4 4 3 3 3 2 3 4 4 4
3 3 3 4 3 3 4 4 3 3 3 3 3 3 3 2 3 5 6 5 4 4 2 2 1 3 3 5 5 5 6 6 5 4 4 3 3 2 2 3 3 3 4
3 3 3 3 3 3 3 3 2 2 2 2 3 3 2 2 2 2 3 3 4 4 3 2 5 6 5 3 3 5 5 4 4 4 3 3 3 3 3 3 2 3 3
3 3 3 3 3 3 2 1 1 1 1 2 2 2 2 2 0 2 1 2 2 1 2 3 3 3 3 3 3 2 3 3 3 3 3 3 3 3 3 2 2 3 3
3 3 3 3 3 3 3 2 2 1 2 2 3 3 1 1 1 1 0 0 1 2 3 3 3 2 3 2 2 2 3 3 3 3 3 3 3 3 3 3 3 3 3
2 2 2 2 3 3 2 2 2 2 2 1 0 1 1 0 1 2 2 2 3 4 4 3 3 2 3 3 3 3 3 3 2 3 3 3 3 3 3 3 3 3 3
2 1 2 2 2 2 2 2 2 2 2 2 2 3 3 2 2 2 3 3 3 5 4 3 2 2 2 3 3 3 3 3 3 3 3 3 3 3 3 3 3 3 3
1 1 1 1 1 1 2 2 2 2 2 1 1 3 4 4 4 3 4 3 2 2 2 2 2 2 2 2 2 3 3 3 3 3 2 2 3 3 3 3 3 2 3
1 1 1 1 2 2 2 2 2 2 1 1 1 1 2 2 2 3 3 3 2 2 2 2 1 1 2 2 2 2 3 3 3 3 2 2 2 3 3 3 3 3 3
1 2 3 3 2 2 2 2 2 1 1 1 1 1 1 2 2 2 2 2 2 2 2 2 2 1 2 2 2 2 3 2 2 3 2 2 2 3 3 3 3 3 3
2 2 2 2 2 2 2 2 2 2 2 2 1 3 4 3 2 2 2 2 2 2 2 2 2 2 2 2 2 2 3 2 2 3 3 3 2 3 3 3 3 3 3
2 2 2 2 2 2 3 2 2 2 2 1 1 1 2 1 1 1 1 1 1 1 2 2 2 2 1 2 2 2 3 3 3 3 4 3 3 2 2 2 3 3 3
2 2 2 2 2 2 2 2 2 1 1 1 1 1 1 1 1 1 1 1 1 1 1 1 2 2 2 2 2 2 2 3 4 3 5 4 4 3 3 3 3 3 3
2 2 2 2 2 2 2 2 1 1 1 0 0 1 1 1 1 1 0 1 1 1 1 1 1 1 2 2 2 2 3 3 4 5 4 4 4 4 4 4 3 3 3
2 2 2 2 2 2 2 1 1 1 1 1 1 1 1 1 1 1 0 1 1 1 1 1 1 2 2 2 2 3 2 2 3 4 5 4 4 3 3 3 4 3 3
Wind_Direction
196 193 192 186 191 197 200 198 196 195 195 205 214 209 214 216 212 223 243 232 235 235 238 219 240 274 245 233 232 238 248 258 254 237 134 101 97 306 82 234 187 190 144
189 187 184 180 180 183 184 185 184 190 202 199 206 207 216 214 209 214 225 229 231 232 231 228 228 216 230 254 252 252 252 261 254 253 227 176 162 183 174 243 205 182 159
180 184 179 182 182 184 179 178 184 190 199 196 200 216 223 224 218 215 217 222 227 235 232 230 240 233 239 249 253 250 245 236 244 244 235 212 213 165 193 203 167 203 221
181 183 181 183 185 192 189 184 188 192 194 193 187 206 221 224 225 223 224 219 222 229 235 236 236 231 225 234 235 242 248 246 233 242 238 216 206 188 221 206 189 180 225
188 189 181 174 180 192 191 190 194 195 196 197 198 207 215 221 227 217 223 222 228 234 235 237 232 241 326 287 283 266 256 257 248 244 239 232 216 212 229 226 217 204 199
196 195 182 180 184 195 198 190 194 197 196 200 209 216 221 223 81 36 282 241 234 235 233 233 219 204 201 216 257 281 279 265 272 267 253 251 250 245 256 252 241 239 241
190 189 188 186 190 197 199 187 190 200 201 211 219 223 223 182 142 189 274 257 243 244 244 244 246 216 226 228 212 214 229 240 249 267 267 264 255 253 260 247 239 258 267
193 194 193 191 190 192 200 195 193 201 204 212 220 219 220 195 170 196 242 241 243 237 240 246 254 248 249 261 253 242 239 226 234 244 259 263 264 264 253 255 250 234 231
201 201 199 194 192 190 196 200 199 198 200 215 219 211 213 185 176 197 231 235 231 239 245 253 252 239 228 282 255 248 249 243 218 218 262 267 280 270 266 251 234 235 241
204 203 207 199 197 195 197 206 204 202 204 213 210 210 212 191 172 195 237 243 235 235 229 232 238 247 221 258 251 248 250 256 258 225 222 226 229 218 215 234 245 245 253
211 207 201 197 197 195 193 196 202 207 208 218 212 214 214 191 175 195 242 258 251 248 243 235 174 144 208 248 261 253 256 271 263 252 244 237 229 219 211 216 239 254 260
201 198 195 195 201 190 185 193 202 206 201 208 213 220 209 194 189 195 216 251 282 260 260 259 125 128 193 254 259 259 259 261 252 247 249 247 245 238 224 222 223 248 262
191 198 200 195 198 191 191 190 192 203 220 216 218 222 215 202 177 183 203 219 236 259 288 27 118 194 218 230 226 237 242 246 254 255 252 249 249 247 238 220 205 219 241
191 195 190 188 187 182 193 193 202 211 221 230 242 241 225 216 223 208 201 197 199 221 239 187 188 207 225 240 215 218 235 256 271 271 274 263 246 233 230 230 224 216 234
187 198 196 191 180 176 180 173 220 233 291 263 255 256 253 236 41 34 271 246 250 235 262 242 228 208 212 216 218 230 246 243 244 255 263 260 253 245 236 232 234 239 240
191 197 199 185 178 182 171 156 64 77 66 49 4 327 335 55 112 115 63 325 279 232 244 239 235 239 246 248 244 241 242 253 260 260 259 263 258 252 249 239 233 236 242
205 205 198 185 173 179 189 190 177 140 137 137 180 326 319 33 146 176 192 203 219 207 230 244 241 242 255 256 250 249 250 252 260 261 261 262 266 264 256 248 239 239 242
206 185 204 191 187 190 194 199 209 211 192 184 183 190 198 190 175 179 182 190 202 205 229 243 254 258 260 265 260 251 246 242 242 248 254 262 265 270 269 257 246 241 243
201 207 209 188 193 195 207 216 217 218 212 190 162 150 171 180 180 191 196 222 228 229 235 237 245 256 260 267 277 275 262 254 257 264 263 277 286 288 284 275 263 233 246
191 132 229 213 201 196 210 220 216 211 210 197 198 187 154 186 199 181 200 231 246 248 258 264 266 283 289 288 281 272 267 264 261 258 262 266 272 280 282 280 278 266 253
185 165 197 217 210 208 221 234 233 222 214 217 222 98 103 227 237 231 236 249 262 268 267 271 270 268 273 270 279 274 272 278 291 297 283 273 276 276 276 273 271 272 272
204 200 204 205 205 202 215 226 230 226 214 218 193 150 176 232 240 239 239 248 268 287 284 287 289 293 307 307 305 297 289 290 296 297 295 281 273 277 276 274 274 279 279
203 193 186 186 207 193 217 224 221 217 216 217 198 177 185 234 253 255 253 266 269 279 294 288 279 281 286 293 295 289 290 294 298 299 293 282 269 266 265 263 265 267 273
203 208 200 185 195 208 222 236 235 219 212 208 201 191 187 209 252 284 295 290 269 271 289 289 284 290 293 292 288 286 319 330 309 290 292 288 275 264 257 255 261 265 268
203 208 216 206 201 206 216 227 223 214 223 213 175 175 176 192 219 237 266 288 275 249 259 290 298 290 284 290 299 332 29 15 336 318 293 282 274 267 260 256 256 263 269
209 203 220 220 220 219 214 225 239 230 221 209 206 211 196 195 209 232 233 267 276 266 255 259 276 287 289 285 343 21 32 352 321 309 295 280 275 275 271 262 263 264 265